Location: Mouss�
(47.9236°N, 1.2701°W)
Time: 01:36:29
(UTC+00:00)

HJ-1C - Pass Details

Date: 03 March 2021
Orbit: 428 x 441 km, 97.1° (Epoch: 12 April)

Event Time Altitude Azimuth Distance (km) Brightness Sun altitude
Rises 18:32:21 0° 151° (SSE) 2,416 6.8 -7.4°
Reaches altitude 10° 18:34:25 10° 144° (SE) 1,550 5.8 -7.8°
Maximum altitude 18:37:35 42° 73° (ENE) 639 3.7 -8.3°
Drops below altitude 10° 18:40:45 10° 1° (N) 1,556 6.1 -8.8°
Sets 18:42:49 0° 354° (N) 2,428 7.2 -9.2°
